Back to catalog

BRO-12

AliveScienceSSO
NORAD 59108·PAYLOAD·🇫🇷 France

Launched Mar 4, 2024 from Vandenberg Space Force Base

Loading…

Next Passes (next 24 hours)

TLE

FreshSource: Space-Track

Epoch: Sep 14, 2026, 14:15 UTC

1 59108U 24043L   26257.59388142  .00001154  00000-0  10543-3 0  9995
2 59108  97.8605  29.1459 0009746  61.2281 298.9918 14.97013411138016

Track BRO-12 in real time with AllMySat

Download on the App Store